| time (UTC) | temp C | wind direction | speed KPH | gust KPH | rain 1hr cm | rain 24hr cm | rain mn cm | humidity % | barometer mb |
| 20260507111532 | 12 | 360 | 6.4 | 11.3 | 0.00 | 0.30 | 0.08 | 83 | 1009.5 |
| 20260507110038 | 12 | 346 | 6.4 | 16.1 | 0.00 | 0.30 | 0.08 | 84 | 1009.7 |
| 20260507104536 | 12 | 311 | 6.4 | 14.5 | 0.00 | 0.30 | 0.08 | 84 | 1009.4 |
| 20260507103032 | 12 | 46 | 4.8 | 9.7 | 0.00 | 0.30 | 0.08 | 84 | 1009.1 |
| 20260507101539 | 12 | 49 | 4.8 | 14.5 | 0.00 | 0.30 | 0.08 | 83 | 1009.1 |
| 20260507100037 | 12 | 55 | 6.4 | 9.7 | 0.00 | 0.30 | 0.08 | 83 | 1009.1 |
| 20260507094533 | 12 | 333 | 4.8 | 14.5 | 0.00 | 0.30 | 0.08 | 84 | 1009.1 |
| 20260507093041 | 12 | 32 | 6.4 | 12.9 | 0.00 | 0.30 | 0.08 | 85 | 1009.0 |
| 20260507091533 | 12 | 337 | 4.8 | 11.3 | 0.00 | 0.30 | 0.08 | 86 | 1009.2 |
| 20260507090034 | 12 | 346 | 6.4 | 17.7 | 0.00 | 0.30 | 0.08 | 86 | 1008.8 |
| 20260507084536 | 13 | 66 | 8.0 | 16.1 | 0.00 | 0.30 | 0.08 | 88 | 1008.7 |
| 20260507083038 | 13 | 64 | 8.0 | 14.5 | 0.00 | 0.30 | 0.08 | 89 | 1008.8 |
| 20260507081534 | 13 | 115 | 3.2 | 8.0 | 0.00 | 0.30 | 0.08 | 90 | 1009.1 |
| 20260507080047 | 13 | 355 | 6.4 | 16.1 | 0.00 | 0.30 | 0.08 | 89 | 1008.7 |
| 20260507074535 | 13 | 44 | 4.8 | 11.3 | 0.00 | 0.30 | 0.08 | 89 | 1008.3 |
| 20260507073035 | 13 | 48 | 3.2 | 12.9 | 0.00 | 0.30 | 0.08 | 89 | 1008.0 |
| 20260507071557 | 13 | 55 | 4.8 | 14.5 | 0.00 | 0.30 | 0.08 | 88 | 1008.1 |
| 20260507070040 | 13 | 332 | 6.4 | 16.1 | 0.00 | 0.30 | 0.08 | 88 | 1008.3 |
| 20260507064540 | 13 | 348 | 6.4 | 22.5 | 0.00 | 0.30 | 0.08 | 88 | 1008.0 |
| 20260507063041 | 13 | 28 | 9.7 | 30.6 | 0.03 | 0.30 | 0.08 | 89 | 1008.2 |
| 20260507061530 | 14 | 334 | 11.3 | 24.1 | 0.05 | 0.30 | 0.08 | 90 | 1008.2 |
| 20260507060028 | 14 | 21 | 8.0 | 17.7 | 0.05 | 0.30 | 0.08 | 90 | 1007.3 |
| 20260507054528 | 15 | 57 | 6.4 | 17.7 | 0.05 | 0.30 | 0.08 | 90 | 1006.6 |
| 20260507053029 | 15 | 44 | 9.7 | 29.0 | 0.05 | 0.28 | 0.05 | 89 | 1007.3 |
| 20260507051528 | 16 | 324 | 9.7 | 22.5 | 0.03 | 0.23 | 0.03 | 88 | 1008.1 |
| 20260507050029 | 16 | 355 | 8.0 | 17.7 | 0.03 | 0.23 | 0.03 | 87 | 1008.2 |
| 20260507044526 | 17 | 9 | 8.0 | 16.1 | 0.03 | 0.23 | 0.03 | 86 | 1007.7 |
| 20260507043034 | 18 | 319 | 9.7 | 24.1 | 0.00 | 0.23 | 0.00 | 86 | 1008.0 |
| 20260507041529 | 19 | 352 | 3.2 | 9.7 | 0.00 | 0.23 | 0.00 | 85 | 1007.4 |
| 20260507040027 | 19 | 288 | 1.6 | 8.0 | 0.00 | 0.23 | 0.00 | 84 | 1007.6 |
| 20260507034530 | 19 | 339 | 0.0 | 0.0 | 0.00 | 0.23 | 0.23 | 83 | 1007.2 |
| 20260507033028 | 19 | 233 | 0.0 | 0.0 | 0.00 | 0.23 | 0.23 | 83 | 1007.0 |
| 20260507031528 | 19 | 288 | 0.0 | 0.0 | 0.00 | 0.23 | 0.23 | 82 | 1007.3 |
| 20260507030032 | 20 | 335 | 0.0 | 0.0 | 0.00 | 0.23 | 0.23 | 82 | 1007.3 |
| 20260507024529 | 20 | 293 | 0.0 | 0.0 | 0.00 | 0.23 | 0.23 | 82 | 1007.2 |
| 20260507023030 | 20 | 250 | 0.0 | 0.0 | 0.00 | 0.23 | 0.23 | 81 | 1006.7 |
| 20260507021528 | 20 | 165 | 0.0 | 4.8 | 0.00 | 0.23 | 0.23 | 81 | 1006.3 |
| 20260507020033 | 20 | 248 | 0.0 | 0.0 | 0.00 | 0.23 | 0.23 | 81 | 1007.0 |
| 20260507014528 | 20 | 202 | 0.0 | 1.6 | 0.00 | 0.23 | 0.23 | 80 | 1007.0 |
| 20260507013036 | 20 | 244 | 0.0 | 6.4 | 0.00 | 0.23 | 0.23 | 80 | 1007.2 |
| 20260507011537 | 20 | 260 | 4.8 | 8.0 | 0.00 | 0.23 | 0.23 | 80 | 1007.1 |
| 20260507010030 | 20 | 194 | 4.8 | 14.5 | 0.00 | 0.23 | 0.23 | 79 | 1006.4 |
| 20260507004527 | 20 | 239 | 8.0 | 11.3 | 0.00 | 0.23 | 0.23 | 79 | 1006.4 |
| 20260507003029 | 20 | 198 | 8.0 | 16.1 | 0.00 | 0.23 | 0.23 | 79 | 1006.2 |
| 20260507001533 | 21 | 223 | 6.4 | 22.5 | 0.00 | 0.23 | 0.23 | 79 | 1006.5 |
| 20260507000028 | 21 | 192 | 8.0 | 19.3 | 0.00 | 0.23 | 0.23 | 78 | 1006.4 |
| 20260506234540 | 21 | 204 | 11.3 | 19.3 | 0.00 | 0.23 | 0.23 | 77 | 1006.2 |
| 20260506233028 | 21 | 148 | 12.9 | 24.1 | 0.00 | 0.23 | 0.23 | 77 | 1005.9 |
| 20260506231535 | 21 | 175 | 12.9 | 25.7 | 0.00 | 0.23 | 0.23 | 77 | 1006.0 |
| 20260506230030 | 21 | 191 | 8.0 | 24.1 | 0.00 | 0.23 | 0.23 | 76 | 1006.1 |
| 20260506224531 | 21 | 194 | 11.3 | 24.1 | 0.00 | 0.23 | 0.23 | 75 | 1006.2 |
| 20260506223027 | 21 | 180 | 17.7 | 29.0 | 0.00 | 0.23 | 0.23 | 74 | 1006.0 |
| 20260506221529 | 22 | 218 | 20.9 | 41.8 | 0.00 | 0.23 | 0.23 | 73 | 1006.0 |
| 20260506220032 | 22 | 171 | 12.9 | 35.4 | 0.00 | 0.23 | 0.23 | 74 | 1006.0 |
| 20260506214529 | 22 | 246 | 14.5 | 35.4 | 0.00 | 0.23 | 0.23 | 73 | 1005.9 |
| 20260506213030 | 21 | 214 | 12.9 | 32.2 | 0.00 | 0.23 | 0.23 | 74 | 1006.2 |
| 20260506211529 | 21 | 201 | 19.3 | 30.6 | 0.00 | 0.23 | 0.23 | 74 | 1006.0 |
| 20260506210030 | 21 | 234 | 9.7 | 24.1 | 0.00 | 0.23 | 0.23 | 75 | 1006.1 |
| 20260506204534 | 21 | 196 | 17.7 | 33.8 | 0.00 | 0.23 | 0.23 | 75 | 1005.9 |
| 20260506203034 | 21 | 199 | 14.5 | 32.2 | 0.00 | 0.23 | 0.23 | 76 | 1006.1 |
| 20260506201530 | 20 | 211 | 19.3 | 35.4 | 0.00 | 0.23 | 0.23 | 76 | 1006.0 |
| 20260506200044 | 20 | 240 | 16.1 | 29.0 | 0.00 | 0.23 | 0.23 | 78 | 1006.0 |
| 20260506194530 | 19 | 196 | 14.5 | 30.6 | 0.00 | 0.23 | 0.23 | 79 | 1006.0 |
| 20260506193031 | 19 | 220 | 17.7 | 29.0 | 0.00 | 0.23 | 0.23 | 80 | 1006.1 |
| 20260506191533 | 19 | 213 | 17.7 | 30.6 | 0.00 | 0.23 | 0.23 | 80 | 1006.6 |
| 20260506190037 | 19 | 190 | 14.5 | 25.7 | 0.00 | 0.23 | 0.23 | 80 | 1006.7 |
| 20260506184538 | 19 | 157 | 9.7 | 22.5 | 0.00 | 0.23 | 0.23 | 80 | 1007.0 |
| 20260506183034 | 19 | 196 | 16.1 | 35.4 | 0.00 | 0.23 | 0.23 | 79 | 1006.8 |
| 20260506181534 | 19 | 186 | 9.7 | 30.6 | 0.00 | 0.23 | 0.23 | 80 | 1007.6 |
| 20260506180031 | 18 | 186 | 9.7 | 24.1 | 0.00 | 0.23 | 0.23 | 80 | 1007.2 |
| 20260506174533 | 18 | 161 | 12.9 | 24.1 | 0.00 | 0.23 | 0.23 | 81 | 1007.3 |
| 20260506173037 | 18 | 213 | 14.5 | 33.8 | 0.00 | 0.23 | 0.23 | 82 | 1007.5 |
| 20260506171536 | 18 | 215 | 12.9 | 37.0 | 0.00 | 0.23 | 0.23 | 82 | 1007.6 |
| 20260506170035 | 18 | 124 | 17.7 | 37.0 | 0.00 | 0.23 | 0.23 | 83 | 1007.6 |
| 20260506164532 | 18 | 201 | 14.5 | 27.4 | 0.00 | 0.23 | 0.23 | 84 | 1008.0 |
| 20260506163053 | 17 | 194 | 20.9 | 35.4 | 0.00 | 0.23 | 0.23 | 85 | 1007.8 |
| 20260506161530 | 17 | 203 | 22.5 | 40.2 | 0.00 | 0.23 | 0.23 | 86 | 1008.2 |
| 20260506160036 | 17 | 202 | 11.3 | 29.0 | 0.00 | 0.23 | 0.23 | 88 | 1008.2 |
| 20260506154538 | 16 | 184 | 12.9 | 29.0 | 0.05 | 0.23 | 0.23 | 88 | 1008.1 |
| 20260506153033 | 16 | 144 | 12.9 | 29.0 | 0.05 | 0.23 | 0.23 | 88 | 1008.1 |
| 20260506151537 | 16 | 228 | 16.1 | 27.4 | 0.20 | 0.23 | 0.23 | 88 | 1007.9 |
| 20260506150032 | 16 | 203 | 16.1 | 29.0 | 0.20 | 0.23 | 0.23 | 88 | 1008.1 |
| 20260506144529 | 16 | 186 | 20.9 | 38.6 | 0.15 | 0.18 | 0.18 | 87 | 1008.3 |
| 20260506143033 | 17 | 151 | 14.5 | 24.1 | 0.15 | 0.18 | 0.18 | 85 | 1008.7 |
| 20260506141533 | 17 | 197 | 16.1 | 24.1 | 0.03 | 0.03 | 0.03 | 84 | 1008.7 |
| 20260506140036 | 17 | 226 | 9.7 | 19.3 | 0.03 | 0.03 | 0.03 | 83 | 1008.5 |
| 20260506134540 | 17 | 130 | 12.9 | 20.9 | 0.03 | 0.03 | 0.03 | 82 | 1008.2 |
| 20260506133033 | 17 | 235 | 9.7 | 22.5 | 0.03 | 0.03 | 0.03 | 81 | 1008.3 |
| 20260506131537 | 17 | 203 | 14.5 | 27.4 | 0.00 | 0.00 | 0.00 | 78 | 1008.5 |
| 20260506130033 | 17 | 196 | 14.5 | 22.5 | 0.00 | 0.00 | 0.00 | 77 | 1008.6 |
| 20260506124543 | 18 | 211 | 9.7 | 22.5 | 0.00 | 0.00 | 0.00 | 75 | 1008.5 |
| 20260506123040 | 18 | 215 | 12.9 | 25.7 | 0.00 | 0.00 | 0.00 | 73 | 1008.2 |
| 20260506121557 | 18 | 205 | 12.9 | 32.2 | 0.00 | 0.00 | 0.00 | 72 | 1008.3 |
| 20260506120049 | 18 | 210 | 12.9 | 24.1 | 0.00 | 0.00 | 0.00 | 71 | 1008.4 |
| 20260506114542 | 18 | 235 | 20.9 | 37.0 | 0.00 | 0.00 | 0.00 | 72 | 1008.4 |
| 20260506113040 | 18 | 247 | 16.1 | 29.0 | 0.00 | 0.00 | 0.00 | 71 | 1008.4 |